INMARSAT 5-F1

Last updated on Jan. 29, 2020, 4:37 a.m. UTC

1 39476U 13073A   20028.79899218  .00000027  00000-0  00000-0 0  9997
2 39476   0.0179  74.7215 0000286 309.3919  93.6324  1.00271594 22217
UTC
Height (km)
Latitude
Longitude
Inclination
Orbital Period
UTC large
Height (km)
Speed (km/s)
/
Latitude / Longitude
Inclination (degrees)
Orbital Period (minutes)
Azimuth
Elevation
Range (km)
Doppler Factor
iOS Compass Heading
iOS Angle

Next 30 passes for location: Hong Kong

Rise time Rise Azimuth (degrees) Set time Set Azimuth (degrees) Duration Max altitude (degrees)

No matching passes for this satellites